(204011) = 1999 XT3 = 2003 UX29

Discovered at Goodricke-Pigott on 2003-10-23 by R. A. Tucker.

Orbit

Orbit type: Main Belt

Note: WebGL enabled browser required.

epoch2023-09-13.0
epoch JD2460200.5
perihelion date2020-02-29.36163
perihelion JD2458908.86163
argument of perihelion (°)244.53437
ascending node (°)95.81822
inclination (°)5.87914
eccentricity0.1971648
perihelion distance (AU)2.0849792
Tisserand w.r.t. Jupiter3.4
ΔV w.r.t. Earth (km/sec)9.3
semimajor axis (AU)2.5970200
mean anomaly (°)304.18083
mean daily motion (°/day)0.23550000
aphelion distance (AU)3.109
period (years)4.19
P-vector [x]0.93705523
P-vector [y]-0.27214165
P-vector [z]-0.21878395
Q-vector [x]0.33398103
Q-vector [y]0.88137440
Q-vector [z]0.33411950
absolute magnitude16.28
phase slope0.15
uncertainty0
referenceMPEC 2023-R158
observations used429
oppositions18
arc length (days)8682
first opposition used1999
last opposition used2023
residual rms (arc-secs)0.75
perturbers coarse indicatorM-v
perturbers precise indicator003Ek
first observation date used1999-12-04.0
last observation date used2023-09-11.0
computer nameMPCLINUX
JD of orbit computation2456789.363300
perihelion JD uncertainty (days)8.9462E-05
argument of perihelion uncertainty (°)7.7320E-05
ascending node uncertainty (°)7.5117E-05
inclination uncertainty (°)6.1385E-06
eccentricity uncertainty 8.2841E-08
perihelion distance uncertainty (AU)2.2801E-07
Minimum Orbit Intersection Distances (in AU)
for orbit epoch: 2460200.5, reference: E2023-RF8
Mercury1.68831
Venus1.35798
Earth1.08367
Mars0.71106
Jupiter2.28782
Saturn6.15257
Uranus15.3508
Neptune27.3156

Observations

434 total observations over interval: 1999 12 04.31320 – 2023 09 11.266701
These data are available for download (format description).

Date (UT) J2000 RA J2000 Dec Magn Location Ref
1999 12 04.31320 03 35 08.27 +13 36 15.0 19.5 R 703 – Catalina Sky Survey MPS 7933
1999 12 04.33329 03 35 07.10 +13 36 14.5 19.1 R 703 – Catalina Sky Survey MPS 7933
1999 12 04.34544 03 35 06.66 +13 36 12.7 18.9 R 703 – Catalina Sky Survey MPS 7933
1999 12 04.35755 03 35 05.87 +13 36 14.2 19.1 R 703 – Catalina Sky Survey MPS 7933
1999 12 05.29078 03 34 17.15 +13 36 33.3 19.4 R 703 – Catalina Sky Survey MPS 7933
1999 12 05.30855 03 34 16.24 +13 36 34.9 19.0 R 703 – Catalina Sky Survey MPS 7933
1999 12 05.32645 03 34 15.28 +13 36 34.3 19.7 R 703 – Catalina Sky Survey MPS 7933
1999 12 05.34419 03 34 14.34 +13 36 34.5 19.2 R 703 – Catalina Sky Survey MPS 7933
2002 03 23.45930 15 30 13.61 -11 57 02.6 21.3 V 691 – Steward Observatory, Kitt Peak-Spacewatch MPS 178420
2002 03 23.48054 15 30 13.50 -11 57 01.4 21.3 V 691 – Steward Observatory, Kitt Peak-Spacewatch MPS 178420
2002 03 23.50182 15 30 13.32 -11 56 59.1 21.7 V 691 – Steward Observatory, Kitt Peak-Spacewatch MPS 178420
2003 09 28.37763 02 24 24.07 +03 55 52.6 18.6 R 699 – Lowell Observatory-LONEOS MPS 89610
2003 09 28.39189 02 24 23.66 +03 55 48.5   699 – Lowell Observatory-LONEOS MPS 89610
2003 09 28.40612 02 24 23.24 +03 55 45.8   699 – Lowell Observatory-LONEOS MPS 89610
2003 09 28.42038 02 24 22.69 +03 55 41.7   699 – Lowell Observatory-LONEOS MPS 89610
2003 10 14.30509 02 13 07.58 +02 49 15.0 19.1 R 699 – Lowell Observatory-LONEOS MPS 89610
2003 10 14.31512 02 13 07.02 +02 49 13.9   699 – Lowell Observatory-LONEOS MPS 89610
2003 10 14.32505 02 13 06.46 +02 49 11.0   699 – Lowell Observatory-LONEOS MPS 89610
2003 10 14.33504 02 13 06.00 +02 49 08.4   699 – Lowell Observatory-LONEOS MPS 89610
2003 10 20.23411 02 07 50.35 +02 27 03.0 18.0   644 – Palomar Mountain/NEAT MPS 89610
2003 10 20.27545 02 07 47.94 +02 26 53.4 20.3 R 683 – Goodricke-Pigott Observatory, Tucson MPS 89610
2003 10 20.28885 02 07 47.16 +02 26 49.5 19.9 R 683 – Goodricke-Pigott Observatory, Tucson MPS 89610
2003 10 20.30222 02 07 46.34 +02 26 47.9 20.3 R 683 – Goodricke-Pigott Observatory, Tucson MPS 89610
2003 10 20.30425 02 07 46.33 +02 26 48.4 18.1   644 – Palomar Mountain/NEAT MPS 89610
2003 10 20.31477 02 07 45.72 +02 26 46.2 18.7   704 – Lincoln Laboratory ETS, New Mexico MPS 89610
2003 10 20.32636 02 07 45.05 +02 26 44.3 19.1   704 – Lincoln Laboratory ETS, New Mexico MPS 89610
2003 10 20.33839 02 07 44.29 +02 26 41.8 19.0   704 – Lincoln Laboratory ETS, New Mexico MPS 89610
2003 10 20.34977 02 07 43.68 +02 26 39.4 18.9   704 – Lincoln Laboratory ETS, New Mexico MPS 89610
2003 10 20.36124 02 07 42.98 +02 26 36.9 18.7   704 – Lincoln Laboratory ETS, New Mexico MPS 89610
2003 10 20.37115 02 07 42.49 +02 26 34.5 18.1   644 – Palomar Mountain/NEAT MPS 89610
2003 10 21.27206 02 06 53.12 +02 23 30.6 20.8 R 683 – Goodricke-Pigott Observatory, Tucson MPS 89610
2003 10 21.27889 02 06 52.65 +02 23 28.7 18.9 V 691 – Steward Observatory, Kitt Peak-Spacewatch MPS 89610
2003 10 21.28549 02 06 52.30 +02 23 26.6 20.2 R 683 – Goodricke-Pigott Observatory, Tucson MPS 89610
2003 10 21.29885 02 06 51.54 +02 23 24.2 19.7 R 683 – Goodricke-Pigott Observatory, Tucson MPS 89610
2003 10 21.30553 02 06 51.10 +02 23 23.3 18.9 V 691 – Steward Observatory, Kitt Peak-Spacewatch MPS 89610
2003 10 21.33201 02 06 49.57 +02 23 18.0 18.9 V 691 – Steward Observatory, Kitt Peak-Spacewatch MPS 89610
2003 10 23.26534 02 05 02.65 +02 17 01.2 20.0 R 683 – Goodricke-Pigott Observatory, Tucson MPS 89610
2003 10 23.27874 02 05 01.78 +02 16 58.5 20.8 R 683 – Goodricke-Pigott Observatory, Tucson MPS 89610
2003 10 23.29212 02 05 01.04 +02 16 56.6 20.5 R 683 – Goodricke-Pigott Observatory, Tucson MPS 89610
2003 10 24.34723 02 04 02.66 +02 13 44.2 19.5   608 – Haleakala-AMOS MPS 89610
2003 10 24.35793 02 04 02.01 +02 13 42.2 19.2   608 – Haleakala-AMOS MPS 89610
2003 10 24.36811 02 04 01.42 +02 13 40.4 19.6   608 – Haleakala-AMOS MPS 89610
2003 10 26.25524 02 02 16.75 +02 08 14.8 20.5 R 683 – Goodricke-Pigott Observatory, Tucson MPS 89610
2003 10 26.26864 02 02 16.00 +02 08 13.1 20.0 R 683 – Goodricke-Pigott Observatory, Tucson MPS 89610
2003 10 26.28201 02 02 15.10 +02 08 11.9 20.3 R 683 – Goodricke-Pigott Observatory, Tucson MPS 89610
2003 10 27.25187 02 01 21.76 +02 05 36.4 19.7 R 683 – Goodricke-Pigott Observatory, Tucson MPS 89610
2003 10 27.25264 02 01 21.68 +02 05 38.4 18.5   704 – Lincoln Laboratory ETS, New Mexico MPS 89610
2003 10 27.26411 02 01 21.02 +02 05 36.2 18.7   704 – Lincoln Laboratory ETS, New Mexico MPS 89610
2003 10 27.26530 02 01 21.00 +02 05 34.7 20.3 R 683 – Goodricke-Pigott Observatory, Tucson MPS 89610
2003 10 27.27552 02 01 20.32 +02 05 34.7 18.9   704 – Lincoln Laboratory ETS, New Mexico MPS 89610
2003 10 27.27866 02 01 20.17 +02 05 33.4 20.5 R 683 – Goodricke-Pigott Observatory, Tucson MPS 89610
2003 10 27.28729 02 01 19.71 +02 05 32.7 19.0   704 – Lincoln Laboratory ETS, New Mexico MPS 89610
2003 10 27.29871 02 01 18.99 +02 05 31.6 18.7   704 – Lincoln Laboratory ETS, New Mexico MPS 89610
2003 11 03.52050 01 54 54.58 +01 51 13.0 19.8   608 – Haleakala-AMOS MPS 90585
2003 11 03.53100 01 54 54.02 +01 51 11.0 20.5   608 – Haleakala-AMOS MPS 90585
2003 11 03.54178 01 54 53.46 +01 51 10.2 20.6   608 – Haleakala-AMOS MPS 90585
2003 11 15.18956 01 46 17.87 +01 48 10.6 21.3 R 683 – Goodricke-Pigott Observatory, Tucson MPS 91042
2003 11 15.20296 01 46 17.31 +01 48 12.1 21.1 R 683 – Goodricke-Pigott Observatory, Tucson MPS 91042
2003 11 15.21637 01 46 16.90 +01 48 10.8 20.7 R 683 – Goodricke-Pigott Observatory, Tucson MPS 91042
2003 11 18.20804 01 44 33.77 +01 51 39.7 18.8 R 699 – Lowell Observatory-LONEOS MPS 92762
2003 11 18.22784 01 44 33.07 +01 51 40.2   699 – Lowell Observatory-LONEOS MPS 92762
2003 11 18.24770 01 44 32.31 +01 51 42.4   699 – Lowell Observatory-LONEOS MPS 92762
2003 11 18.26766 01 44 31.66 +01 51 42.6   699 – Lowell Observatory-LONEOS MPS 92762
2003 11 19.14808 01 44 04.37 +01 53 04.8 18.7   644 – Palomar Mountain/NEAT MPS 91042
2003 11 19.16861 01 44 03.68 +01 53 06.6 18.4   644 – Palomar Mountain/NEAT MPS 91042
2003 11 19.18954 01 44 03.01 +01 53 09.0 18.6   644 – Palomar Mountain/NEAT MPS 91042
2003 11 21.17095 01 43 05.51 +01 56 45.6 20.5 R 683 – Goodricke-Pigott Observatory, Tucson MPS 91864
2003 11 21.18434 01 43 05.19 +01 56 48.4 21.1 R 683 – Goodricke-Pigott Observatory, Tucson MPS 91864
2003 11 21.19774 01 43 04.87 +01 56 48.6 21.6 R 683 – Goodricke-Pigott Observatory, Tucson MPS 91864
2003 11 26.19825 01 41 09.53 +02 09 16.4 19.1 R 699 – Lowell Observatory-LONEOS MPS 91864
2003 11 26.21803 01 41 09.08 +02 09 19.7   699 – Lowell Observatory-LONEOS MPS 91864
2003 11 26.23781 01 41 08.62 +02 09 23.3   699 – Lowell Observatory-LONEOS MPS 91864
2003 11 26.25752 01 41 08.22 +02 09 26.1   699 – Lowell Observatory-LONEOS MPS 91864
2005 02 10.11341 09 13 38.94 +21 57 27.3 19.9 R 809 – European Southern Observatory, La Silla MPS 126383
2005 02 10.11966 09 13 38.58 +21 57 29.2 20.0 R 809 – European Southern Observatory, La Silla MPS 126383
2005 02 10.12604 09 13 38.22 +21 57 31.1 19.9 R 809 – European Southern Observatory, La Silla MPS 126383
2006 03 26.34844 14 19 56.11 -05 24 10.6 20.7 V 691 – Steward Observatory, Kitt Peak-Spacewatch MPS 167057
2006 03 26.36578 14 19 55.53 -05 24 05.8 20.7 V 691 – Steward Observatory, Kitt Peak-Spacewatch MPS 167057
2006 03 26.38655 14 19 54.79 -05 24 00.6 20.4 V 691 – Steward Observatory, Kitt Peak-Spacewatch MPS 167057
2007 08 08.33726 00 12 32.41 -08 19 31.0 20.0   704 – Lincoln Laboratory ETS, New Mexico MPS 212556
2007 08 08.34880 00 12 32.47 -08 19 33.7 20.5   704 – Lincoln Laboratory ETS, New Mexico MPS 212556
2007 08 08.37147 00 12 32.57 -08 19 41.7 20.0   704 – Lincoln Laboratory ETS, New Mexico MPS 212556
2007 08 21.39229 00 11 33.86 -09 29 54.6 18.2 R 699 – Lowell Observatory-LONEOS MPS 214275
2007 08 21.41414 00 11 33.60 -09 30 03.3   699 – Lowell Observatory-LONEOS MPS 214275
2007 08 21.43601 00 11 33.08 -09 30 11.8   699 – Lowell Observatory-LONEOS MPS 214275
2007 09 12.24289 23 59 33.72 -11 57 29.7 18.3 V 703 – Catalina Sky Survey MPS 215093
2007 09 12.24939 23 59 33.46 -11 57 32.0 18.3 V 703 – Catalina Sky Survey MPS 215093
